Location: Salillas
(41.9950°N, 0.2228°W)
Time: 01:42:00
(UTC+00:00)

Cosmos 1943 Rocket - Pass Details

Date: 29 March 2020
Orbit: 811 x 845 km, 71.0° (Epoch: 05 June)

Event Time Altitude Azimuth Distance (km) Brightness Sun altitude
Rises 21:57:52 0° 320° (NW) 3,352 6.3 -35.8°
Reaches altitude 10° 22:00:56 10° 304° (WNW) 2,420 5.3 -36.2°
Enters shadow 22:04:14 19° 267° (W) 1,872 4.3 -36.5°
